Weather in Brooklyn

United States     42°20′39″N   75°10′14″W
temp.,
°C
wind,
m/s
gust,
m/s
humid.,
%
clouds,
%
prec.,
mm/h
press.,
hPa
HPBL,
m
16 may, sun
sun1623:00+9sw1184100 0.6 102410
02:00+9s2289100 1.8 102524
05:00+7sse1193100 0.6 102511
08:00+10se1289100 0.9 1025117
11:00+16sw2367100 1.4 1024582
14:00+14wsw357298 2.8 1024866
17:00+15wsw2370100 1.4 1023649
20:00+10s2396100 9.8 1025102
17 may, mon
mon1723:00+8ese0093100 0.9 102510
02:00+7wsw119399 0.9 102510
05:00+6s11925 0.0 102610
08:00+10wsw00874 0.0 1026140
11:00+17ssw12590 0.0 10251206
14:00+19ssw344796 0.0 10242269
17:00+15sw37775 0.4 1024479
20:00+11ssw22885 0.7 102510
18 may, tue
tue1823:00+9s2292100 0.0 102612
02:00+9ssw229487 0.0 102618
05:00+7sw119399 0.0 102610
08:00+11sw12865 0.0 1027139
11:00+17nw356593 0.0 10261151
14:00+19nw465773 0.1 10251955
17:00+18nw477346 0.3 10241153
20:00+14nnw11895 0.5 102511
19 may, wed
wed1923:00+11n11927 0.0 102611
02:00+10sw11905 0.0 102610
05:00+9ssw11905 0.0 102710
08:00+14wnw11833 0.0 1028147
11:00+19nw23660 0.0 1028672
14:00+22nnw23570 0.0 10271279
17:00+23n22606 0.0 10261440
20:00+17n11870 0.2 102611
20 may, thu
thu2023:00+14e11890 0.0 102711
02:00+13ese11905 0.0 102811
05:00+13se1190100 0.0 102811
08:00+17s1185100 0.0 102957
11:00+21sw2269100 0.0 1029428
14:00+23sw2357100 0.0 10281515
17:00+21wsw2573100 0.1 1027215
20:00+17wnw1186100 0.1 102811